FLOCK 3P-34

Last updated on Wed Feb 14 2018 16:20:26 GMT+0000 (Coordinated Universal Time)

1 41988U 17008AS 18045.42510154 .00001457 00000-0 63294-4 0 9991 2 41988 97.4662 110.9872 0009250 69.9652 290.2580 15.23895909 54733
UTC large
Height (km)
Speed (km/s)
/
Latitude / Longitude
Inclination (degrees)
Orbital Period (minutes)
Azimuth
Elevation
Range (km)
Doppler Factor

Next 0 passes for location: London (51.5072 / 0.1276)

Sorry there are no passes over London.